Regional Weather Roundup
Issued by NWS Newport/Morehead, NC

Current Version | Previous Version | Text Only | Print | Product List | Glossary Off
Versions: 1 2 3 4 5 6 7 8 9 10 11 12 13 14 15 16 17 18 19 20 21 22 23 24 25 26 27 28 29 30 31 32 33 34 35 36 37 38 39 40 41 42 43 44 45 46 47 48 49 50
000 ASUS42 KMHX 162113 RWRMHX WEATHER ROUNDUP FOR EASTERN NORTH CAROLINA NATIONAL WEATHER SERVICE NEWPORT/MOREHEAD CITY NC 400 PM EST SAT DEC 16 2017 NOTE: "FAIR" INDICATES FEW OR NO CLOUDS BELOW 12,000 FEET WITH NO SIGNIFICANT WEATHER AND/OR OBSTRUCTIONS TO VISIBILITY NCZ015>017-031-032-045>047-102-103-162200- NORTH COAST CITY SKY/WX TMP DP RH WIND PRES REMARKS EDENTON CLEAR 47 26 43 SW5 30.20S ELIZABETH CITY CLEAR 45 27 49 SW6 30.19S KITTY HAWK CLEAR 42 20 41 CALM 30.18F MANTEO CLEAR 43 24 46 CALM 30.21R $$ NCZ045>047-081-094-103-104-162200- CENTRAL COAST CITY SKY/WX TMP DP RH WIND PRES REMARKS FRISCO CLEAR 44 25 47 W5 30.21F $$ NCZ095-097-098-100-101-162200- SOUTHERN COAST CITY SKY/WX TMP DP RH WIND PRES REMARKS BEAUFORT CLEAR 46 30 53 SW6 30.23R CEDAR ISLAND NOT AVBL JACKSONVILLE CLEAR 50 27 40 W7 30.23R PINEY ISLAND N/A N/A N/A N/A W6 30.22S WILMINGTON SUNNY 52 25 35 SW8 30.23S $$ NCZ011>013-027>030-043-044-078>080-089-090>093-098-162200- COASTAL PLAIN CITY SKY/WX TMP DP RH WIND PRES REMARKS AHOSKIE CLEAR 46 24 41 SW3 30.19R CLINTON SUNNY 50 26 40 SW6 30.23S ELIZABETHTOWN NOT AVBL GOLDSBORO CLEAR 49 25 38 SW10 30.20S GREENVILLE CLEAR 48 27 43 SW7 30.21F HAVELOCK CLEAR 49 26 41 VRB5 30.23S KENANSVILLE CLEAR 50 25 37 NW6 30.23S KINSTON CLEAR 50 23 34 W5 30.22S NEW BERN CLEAR 48 26 42 W7 30.22S RICHLANDS CLEAR 49 26 41 W6 30.23R ROCKY MOUNT CLEAR 48 25 40 SW10 30.20S WASHINGTON CLEAR 48 23 37 W8 30.21S WHITEVILLE SUNNY 51 26 38 SW3 30.23S $$ AMZ130-135-150-152-154-156-158-170-250-252-270-ANZ085-086-088-633-658-670-162200- MARINE OBSERVATIONS STATION/POSITION TIME TEMP WIND PRES WAVE SWELL AIR SEA DIR/SP/G HT/PER HT/PER (UTC) (F) (DEG/KT/KT) (MB) (FT/S) (FT/S) CHESAPEAKE LIGHT NOT AVBL 64 E VA BEACH 2050 45 58 230/ 10/ 12 1022.3 3/ 6 2/ 6 DUCK 2042 44 52 230/ 8/ 11 1021.7 2 E DUCK 2100 54 N/A 2/ 7 OREGON INLET 2042 42 48 190/ 7/ 9 1022.6 13E OREGON INLT 2048 58 N/A 3/ 7 3/ 7 HATTERAS CG 2042 43 52 240/ 4/ 8 1023.0 DIAMOND BUOY 2100 46 73 270/ 8/ 12 1023.4 CAPE LOOKOUT 2100 260/ 7/ 8 1023.9 BEAUFORT LAB 2042 46 49 250/ 5/ 8 1023.5 30 SE NEW RVR IN 2008 47 64 300/ 6/ 10 1024.0 30 SE NEW RVR IN 2100 64 N/A 2/ 6 27 SE WRIGHTSVLE 2008 47 63 250/ 4/ 8 1024.1 5 SE WRIGHTSVLE 2008 47 56 210/ 6/ 10 1023.6 225 S CAPE HAT 2050 62 74 330/ 8/ 12 1022.7 6/ 7 5/ 7 41 SE CHARLESTON 2050 55 72 40/ 4/ 8 1023.9 3/ 5 2/ 5 $$

USA.gov is the U.S. government's official web portal to all federal, state and local government web resources and services.